Regional Weather Roundup
Issued by NWS Little Rock, AR

Home | Current Version | Previous Version | Text Only | Print | Product List | Glossary Off
Versions: 1 2 3 4 5 6 7 8 9 10 11 12 13 14 15 16 17 18 19 20 21 22 23 24 25 26 27 28 29 30 31 32 33 34 35 36 37 38 39 40 41 42 43 44 45 46 47 48 49 50

135
ASUS44 KLZK 170612
RWRLZK

WEATHER ROUNDUP FOR ARKANSAS
NATIONAL WEATHER SERVICE LITTLE ROCK AR
1200 AM CST TUE JAN 17 2017

NOTE: "FAIR" INDICATES FEW OR NO CLOUDS BELOW 12,000 FEET WITH NO
SIGNIFICANT WEATHER AND/OR OBSTRUCTIONS TO VISIBILITY.

ARZ001-003-010-029-170700-
NORTHWEST ARKANSAS

CITY           SKY/WX    TMP DP  RH WIND       PRES   REMARKS
FAYETTEVILLE   PTCLDY    37  36  96 W6        30.02F
6HR MIN TEMP:  35; 6HR MAX TEMP:  56;

FORT SMITH     CLEAR     43  38  82 SW5       30.05R
6HR MIN TEMP:  42; 6HR MAX TEMP:  60;

HARRISON       CLEAR     42  38  85 W7        30.00F
6HR MIN TEMP:  42; 6HR MAX TEMP:  58;

BENTONVILLE    CLEAR    N/A N/A N/A W6        30.01F
ROGERS         CLEAR     39  35  86 W6        30.02S
6HR MIN TEMP:  39; 6HR MAX TEMP:  55;

SILOAM SPGS    CLEAR     37  34  87 W7        30.02S
6HR MIN TEMP:  37; 6HR MAX TEMP:  54;

HIGHFILL       CLEAR     38  34  85 W7        30.01S
6HR MIN TEMP:  38; 6HR MAX TEMP:  53;

$$

ARZ004-005-016-170700-
NORTH CENTRAL ARKANSAS

CITY           SKY/WX    TMP DP  RH WIND       PRES   REMARKS
BATESVILLE     MOCLDY    57  52  82 SW10      29.99S
6HR MIN TEMP:  57; 6HR MAX TEMP:  63;

FLIPPIN        CLEAR     46  37  71 W9        29.98S
6HR MIN TEMP:  46; 6HR MAX TEMP:  61;

MTN HOME       CLEAR     45  40  82 NW7       29.98S
6HR MIN TEMP:  45; 6HR MAX TEMP:  57;

$$

ARZ040-041-170700-
WEST CENTRAL ARKANSAS

CITY           SKY/WX    TMP DP  RH WIND       PRES   REMARKS
MENA           CLEAR     48  46  93 W3        30.05R
MOUNT IDA      CLOUDY    49  45  86 NW5       30.01R
6HR MIN TEMP:  48; 6HR MAX TEMP:  63;

$$

ARZ009-017-025-026-028-170700-
NORTHEAST ARKANSAS

CITY           SKY/WX    TMP DP  RH WIND       PRES   REMARKS
CORNING        FAIR      59  59 100 SW12      29.94S
JONESBORO      CLOUDY    63  60  90 SW14      29.96R
6HR MIN TEMP:  63; 6HR MAX TEMP:  64; 6HR PCP:  1.39;

NEWPORT        CLOUDY    61  59  93 MISG      29.98R
6HR MIN TEMP:  60; 6HR MAX TEMP:  63;

WALNUT RIDGE   CLOUDY    57  55  94 SW12      29.96R
6HR MIN TEMP:  57; 6HR MAX TEMP:  63; 6HR PCP:  0.11;

BLYTHEVILLE    LGT RAIN  64  62  93 SW17G28   29.97R
6HR MIN TEMP:  63; 6HR MAX TEMP:  65; 6HR PCP:  0.89;

$$

ARZ022-023-033-042-044-170700-
CENTRAL ARKANSAS

CITY           SKY/WX    TMP DP  RH WIND       PRES   REMARKS
LITTLE ROCK    CLOUDY    57  57 100 SW5       30.01R
6HR MIN TEMP:  57; 6HR MAX TEMP:  65; 6HR PCP:  0.10;

JACKSONVILLE   CLOUDY    58  56  91 W10       30.01R
6HR MIN TEMP:  58; 6HR MAX TEMP:  65; 6HR PCP:  0.14;

SEARCY         CLOUDY    58  53  84 W7        30.02R
6HR MIN TEMP:  58; 6HR MAX TEMP:  65; 6HR PCP:  0.07;

HOT SPRINGS    PTCLDY    53  51  93 NW5       30.03R
6HR MIN TEMP:  53; 6HR MAX TEMP:  63;

RUSSELLVILLE   CLEAR     49  43  80 SW6       30.04R
6HR MIN TEMP:  49; 6HR MAX TEMP:  61;

CLINTON        FAIR      45  45 100 CALM      30.01R FOG
$$

ARZ036-170700-
EAST ARKANSAS

CITY           SKY/WX    TMP DP  RH WIND       PRES   REMARKS
WEST MEMPHIS   CLOUDY    64  64 100 SW7       29.98S
6HR MIN TEMP:  64; 6HR MAX TEMP:  68; 6HR PCP:  0.06;

$$

ARZ050-053-066-070-073-170700-
SOUTHWEST ARKANSAS

CITY           SKY/WX    TMP DP  RH WIND       PRES   REMARKS
ARKADELPHIA    CLOUDY    57  55  93 SW6       30.05R
6HR MIN TEMP:  57; 6HR MAX TEMP:  64; 6HR PCP:  0.06;

CAMDEN         RAIN      55  54  94 W5        30.06S
TEXARKANA      LGT RAIN  54  51  90 NW3       30.07R FOG
6HR MIN TEMP:  54; 6HR MAX TEMP:  61; 6HR PCP:  0.07;

EL DORADO      LGT RAIN  57  56  96 NW7       30.06S
6HR MIN TEMP:  57; 6HR MAX TEMP:  70; 6HR PCP:  0.64;

DE QUEEN       PTCLDY    46  46 100 CALM      30.05R
6HR MIN TEMP:  45; 6HR MAX TEMP:  59;

$$

ARZ056-057-069-170700-
SOUTHEAST ARKANSAS

CITY           SKY/WX    TMP DP  RH WIND       PRES   REMARKS
PINE BLUFF     LGT RAIN  57  55  93 W10       30.04R
6HR MIN TEMP:  57; 6HR MAX TEMP:  68; 6HR PCP:  0.30;

STUTTGART      CLOUDY    55  50  82 SW8       30.03R
6HR MIN TEMP:  55; 6HR MAX TEMP:  68; 6HR PCP:  0.74;

MONTICELLO     RAIN      62  59  90 W15G24    30.03R FOG
6HR MIN TEMP:  63; 6HR MAX TEMP:  69; 6HR PCP:  0.30;


$$






USA.gov is the U.S. government's official web portal to all federal, state and local government web resources and services.